[[{"header":{"parameterUnit":"m.s-1","parameterCategory":1,"la1":30.2992,"la2":30.254,"lo1":-89.0895,"lo2":-89.0443,"dy":0.0025,"dx":0.0025,"nx":19,"ny":19,"refTime":"2026-05-14T09:00:00:Z","depth":0,"parameterNumber":2,"parameterNumberName":"U-component_of_WINDS"},"data":[0,0,0,-1.7871,-1.7873,-1.7975,-1.7976,-1.8106,-1.8107,0,0,0,0,0,0,0,0,0,0,0,-1.784,-1.7841,-1.787,-1.7873,-1.7975,-1.7976,-1.8106,-1.8107,0,0,0,0,0,0,0,0,0,0,0,-1.7839,-1.784,-1.7841,-1.7873,-1.7975,-1.7976,-1.8106,-1.8029,0,0,0,0,0,0,0,0,0,0,-1.7929,-1.79,-1.784,-1.7841,-1.7874,-1.7975,-1.7976,-1.8025,-1.8033,-1.8059,0,-1.8082,0,-1.8097,-1.8116,-1.8116,0,0,0,-1.7873,-1.7893,-1.7921,-1.7842,-1.7875,-1.7975,-1.7929,-1.803,-1.8039,-1.8071,-1.8084,-1.8089,-1.8099,-1.8117,-1.8117,-1.8265,-1.8266,0,0,-1.7868,-1.7858,-1.7914,-1.7927,-1.7911,-1.7926,-1.7932,-1.8035,-1.8049,-1.8084,-1.8092,-1.8101,-1.8118,-1.8119,-1.8265,-1.8266,0,0,0,-1.7851,-1.7854,-1.788,-1.7922,-1.794,-1.7929,-1.7936,-1.8045,-1.8054,-1.8093,-1.8103,-1.8118,-1.812,-1.8264,-1.8265,-1.8289,0,0,0,-1.7848,-1.7844,-1.7877,-1.7872,-1.7939,-1.7994,-1.7943,-1.8047,-1.8059,-1.8102,-1.8118,-1.8121,-1.8263,-1.8265,-1.8286,-1.8301,0,0,0,-1.7833,-1.7843,-1.7857,-1.7871,-1.7915,-1.7993,-1.8008,-1.805,-1.8065,-1.8116,-1.8122,-1.8263,-1.8264,-1.8284,-1.8298,-1.8337,0,0,0,-1.7815,-1.7877,-1.7857,-1.793,-1.7914,-1.8006,-1.8007,-1.8076,-1.8124,-1.8119,-1.8263,-1.8265,-1.8284,-1.8296,-1.8335,-1.8369,-1.8382,0,0,-1.7887,-1.7885,-1.7929,-1.7914,-1.8007,-1.7991,-1.8088,-1.8141,-1.8155,-1.8228,-1.8232,-1.8287,-1.8298,-1.8337,-1.8458,-1.8468,0,0,0,-1.7948,-1.7979,-1.8006,-1.8051,-1.8093,-1.813,-1.8169,-1.8188,-1.8251,-1.819,-1.8312,-1.8319,-1.8342,-1.8359,-1.8368,-1.8388,-1.8272,-1.8272,-1.8272,-1.8036,-1.8051,-1.8124,-1.8151,-1.8195,-1.8234,-1.8271,-1.8304,-1.8306,-1.8335,-1.8356,-1.8428,-1.8447,-1.8454,-1.8475,-1.8375,-1.8376,-1.8376,-1.8376,-1.8144,-1.819,-1.8192,-1.8263,-1.8279,-1.8339,-1.838,-1.8379,-1.8438,-1.8413,-1.8434,-1.8406,-1.8464,-1.8484,-1.8378,-1.8377,-1.8377,-1.8377,-1.8377,-1.8203,-1.8228,-1.8251,-1.8317,-1.8367,-1.8392,-1.8448,-1.846,-1.8472,-1.8493,-1.8517,-1.8517,-1.8518,-1.8503,-1.8504,-1.8504,-1.8504,-1.8504,-1.8504,-1.8256,-1.8281,-1.8327,-1.8376,-1.8407,-1.8448,-1.8489,-1.8519,-1.8556,-1.856,-1.856,-1.8559,-1.8467,-1.8444,-1.8508,-1.8508,-1.8507,-1.8507,-1.8507,-1.836,-1.8338,-1.8409,-1.8439,-1.8498,-1.8547,-1.8561,-1.8622,-1.8649,-1.8676,-1.8671,-1.8601,-1.8599,-1.8593,-1.8573,-1.8667,-1.8667,-1.8667,-1.8667,-1.841,-1.841,-1.8485,-1.8533,-1.8581,-1.8601,-1.8681,-1.8713,-1.8743,-1.8761,-1.8749,-1.8724,-1.8717,-1.872,-1.871,-1.8692,-1.8815,-1.8815,-1.8815,-1.8474,-1.848,-1.8545,-1.8574,-1.8622,-1.8662,-1.8737,-1.8792,-1.8822,-1.8821,-1.8775,-1.8768,-1.8729,-1.8715,-1.8713,-1.8698,-1.8666,0,0]},{"header":{"parameterUnit":"m.s-1","parameterCategory":1,"la1":30.2992,"la2":30.254,"lo1":-89.0895,"lo2":-89.0443,"dy":0.0025,"dx":0.0025,"nx":19,"ny":19,"refTime":"2026-05-14T09:00:00:Z","depth":0,"parameterNumber":3,"parameterNumberName":"V-component_of_WINDS"},"data":[0,0,0,4.2647,4.2649,4.2747,4.2747,4.2879,4.288,0,0,0,0,0,0,0,0,0,0,0,4.2625,4.2626,4.2647,4.2649,4.2747,4.2747,4.2879,4.288,0,0,0,0,0,0,0,0,0,0,0,4.2625,4.2626,4.2628,4.265,4.2747,4.2747,4.2878,4.2802,0,0,0,0,0,0,0,0,0,0,4.2705,4.2693,4.2626,4.2628,4.265,4.2747,4.2747,4.2798,4.2806,4.2839,0,4.2872,0,4.2879,4.289,4.289,0,0,0,4.2643,4.2686,4.2706,4.2628,4.2651,4.2747,4.2701,4.2802,4.2812,4.285,4.2874,4.2879,4.2881,4.2891,4.2892,4.3104,4.3105,0,0,4.2638,4.2646,4.27,4.2713,4.2702,4.2698,4.2704,4.2808,4.2834,4.2875,4.2882,4.2883,4.2892,4.2893,4.3102,4.3104,0,0,0,4.2626,4.2643,4.266,4.2708,4.2725,4.2701,4.2708,4.2829,4.2834,4.2883,4.2885,4.2893,4.2894,4.3101,4.3103,4.3173,0,0,0,4.2623,4.2636,4.2658,4.2664,4.2723,4.2779,4.2727,4.2827,4.2838,4.2884,4.2893,4.2896,4.31,4.3102,4.3168,4.3204,0,0,0,4.2616,4.2635,4.2652,4.2664,4.2707,4.2777,4.2788,4.2829,4.284,4.289,4.2896,4.3099,4.3102,4.3164,4.3197,4.326,0,0,0,4.2611,4.2714,4.2654,4.2769,4.2706,4.2822,4.2787,4.2872,4.2925,4.2893,4.31,4.3103,4.3163,4.3192,4.3256,4.3313,4.3339,0,0,4.2746,4.2731,4.2798,4.2746,4.2875,4.2806,4.2943,4.2983,4.2979,4.3061,4.3066,4.317,4.3196,4.3259,4.3485,4.3506,0,0,0,4.2843,4.2891,4.2923,4.2974,4.3008,4.3038,4.3055,4.3069,4.3139,4.3024,4.3211,4.3227,4.3263,4.329,4.3307,4.3336,4.3117,4.3116,4.3116,4.3044,4.3035,4.3144,4.3145,4.3195,4.3211,4.3249,4.327,4.3247,4.3291,4.3314,4.3453,4.3485,4.3498,4.3528,4.3346,4.3347,4.3347,4.3347,4.3238,4.3302,4.3268,4.3361,4.3349,4.3426,4.3445,4.3425,4.3492,4.3435,4.3466,4.3401,4.3521,4.3546,4.3352,4.3351,4.3351,4.335,4.335,4.3366,4.3395,4.3411,4.3482,4.3537,4.3535,4.3601,4.3589,4.3577,4.3608,4.3629,4.3628,4.3622,4.362,4.362,4.3621,4.3621,4.3622,4.3622,4.3491,4.3507,4.3566,4.3609,4.3638,4.3675,4.3692,4.3719,4.3746,4.3731,4.3731,4.37,4.3536,4.3492,4.3629,4.3628,4.3627,4.3626,4.3626,4.3686,4.3639,4.373,4.376,4.3807,4.386,4.3844,4.3901,4.3922,4.3954,4.3917,4.3798,4.3781,4.3767,4.3731,4.3921,4.3921,4.3921,4.3921,4.3791,4.3782,4.387,4.3918,4.3963,4.3956,4.4054,4.4067,4.4073,4.4084,4.4056,4.4008,4.3994,4.3985,4.3966,4.3932,4.4169,4.4169,4.4169,4.3909,4.3903,4.399,4.3997,4.4033,4.4062,4.4153,4.4206,4.4203,4.4179,4.4092,4.4082,4.4004,4.3981,4.3952,4.3923,4.386,0,0]}]]